KN4CCE-13 Weather Reports


time (UTC)temp
F
wind
direction
speed
knots
gust
knots
rain 1hr
in
rain 24hr
in
rain mn
in
humidity
%
barometer
mb
20260510190004 83 275 0.0 0.0 0.00 0.00 0.00 34 1014.5
20260510184507 83 292 0.0 0.0 0.00 0.00 0.00 36 1014.6
20260510183006 83 294 0.0 0.0 0.00 0.00 0.00 33 1014.7
20260510181516 83 154 0.0 0.9 0.00 0.00 0.00 33 1014.9
20260510180018 82 307 0.0 0.0 0.00 0.00 0.00 34 1014.9
20260510174506 82 307 0.0 0.0 0.00 0.00 0.00 36 1015.0
20260510173008 83 104 0.0 0.0 0.00 0.00 0.00 39 1014.9
20260510171516 82 94 0.0 0.0 0.00 0.00 0.00 39 1015.1
20260510170007 83 125 0.0 0.0 0.00 0.00 0.00 39 1015.1
20260510164521 82 130 0.0 0.0 0.00 0.00 0.00 37 1015.2
20260510163023 80 283 0.0 2.6 0.00 0.00 0.00 43 1015.4
20260510161509 80 17 0.0 0.0 0.00 0.00 0.00 45 1015.5
20260510160015 80 22 0.0 0.0 0.00 0.00 0.00 46 1015.6
20260510154513 79 300 0.0 0.0 0.00 0.00 0.00 47 1015.8
20260510153010 78 291 0.0 0.0 0.00 0.00 0.00 52 1016.0
20260510151527 77 291 0.0 0.0 0.00 0.00 0.00 55 1015.9
20260510150012 76 225 0.0 0.0 0.00 0.00 0.00 56 1015.7
20260510144515 75 249 0.0 0.0 0.00 0.00 0.00 60 1015.7
20260510143024 74 250 0.0 0.0 0.00 0.00 0.00 64 1015.8
20260510141516 73 150 0.0 0.0 0.00 0.00 0.00 67 1015.7
20260510140010 72 150 0.0 0.0 0.00 0.00 0.00 70 1015.7
20260510134516 71 150 0.0 0.0 0.00 0.00 0.00 72 1015.9
20260510133017 71 150 0.0 0.0 0.00 0.00 0.00 76 1015.7
20260510131504 68 150 0.0 0.0 0.00 0.00 0.00 83 1015.8
20260510130004 67 150 0.0 0.0 0.00 0.00 0.00 89 1015.4
20260510124519 65 152 0.0 0.0 0.00 0.00 0.00 92 1015.2
20260510123012 63 152 0.0 0.0 0.00 0.00 0.00 95 1015.1
20260510121507 62 152 0.0 0.0 0.00 0.00 0.00 96 1015.1
20260510120010 61 152 0.0 0.0 0.00 0.00 0.00 97 1015.0
20260510114508 61 152 0.0 0.0 0.00 0.00 0.00 97 1014.8
20260510113004 60 152 0.0 0.0 0.00 0.00 0.00 97 1014.5
20260510111516 60 152 0.0 0.0 0.00 0.00 0.00 97 1014.3
20260510110005 59 152 0.0 0.0 0.00 0.00 0.00 97 1014.1
20260510104508 59 152 0.0 0.0 0.00 0.00 0.00 97 1013.9
20260510103007 59 152 0.0 0.0 0.00 0.00 0.00 97 1013.9
20260510101506 59 152 0.0 0.0 0.00 0.00 0.00 97 1013.6
20260510100004 59 152 0.0 0.0 0.00 0.00 0.00 97 1013.2
20260510094506 59 111 0.0 0.0 0.00 0.00 0.00 97 1013.0
20260510093009 59 111 0.0 0.0 0.00 0.00 0.00 96 1012.6
20260510091512 59 111 0.0 0.0 0.00 0.00 0.00 96 1012.7
20260510090011 60 111 0.0 0.0 0.00 0.00 0.00 97 1012.4
20260510084507 60 111 0.0 0.0 0.00 0.00 0.00 97 1012.5
20260510083017 60 111 0.0 0.0 0.00 0.00 0.00 96 1012.3
20260510081509 60 111 0.0 0.0 0.00 0.00 0.00 96 1012.2
20260510080025 60 111 0.0 0.0 0.00 0.00 0.00 96 1012.2
20260510074516 60 111 0.0 0.0 0.00 0.00 0.00 96 1012.2
20260510073016 60 111 0.0 0.0 0.00 0.00 0.00 96 1012.1
20260510071508 60 111 0.0 0.0 0.00 0.00 0.00 96 1012.0
20260510070013 60 111 0.0 0.0 0.00 0.00 0.00 96 1012.1
20260510064520 60 111 0.0 0.0 0.00 0.00 0.00 96 1012.2
20260510063025 60 111 0.0 0.0 0.00 0.00 0.00 96 1012.1
20260510061518 60 111 0.0 0.0 0.00 0.00 0.00 96 1011.9
20260510060009 60 111 0.0 0.0 0.00 0.00 0.00 96 1012.1
20260510054512 61 111 0.0 0.0 0.00 0.00 0.00 95 1012.2
20260510053008 61 111 0.0 0.0 0.00 0.00 0.00 96 1012.4
20260510051524 61 111 0.0 0.0 0.00 0.00 0.00 96 1012.5
20260510050026 61 111 0.0 0.0 0.00 0.00 0.00 96 1012.5
20260510044523 61 111 0.0 0.0 0.00 0.00 0.00 96 1012.7
20260510043015 61 111 0.0 0.0 0.00 0.00 0.00 95 1012.6
20260510041518 61 111 0.0 0.0 0.00 0.00 0.00 95 1012.6
20260510040009 61 111 0.0 0.0 0.00 0.00 0.00 95 1012.7
20260510034508 61 111 0.0 0.0 0.00 0.00 0.00 95 1012.5
20260510033008 61 111 0.0 0.0 0.00 0.00 0.00 94 1012.5
20260510031514 61 111 0.0 0.0 0.00 0.00 0.00 94 1012.4
20260510030021 61 111 0.0 0.0 0.00 0.00 0.00 94 1012.4
20260510024522 62 111 0.0 0.0 0.00 0.00 0.00 93 1012.3
20260510023010 62 111 0.0 0.0 0.00 0.00 0.00 93 1012.3
20260510021516 62 111 0.0 0.0 0.00 0.00 0.00 93 1012.1
20260510020009 62 111 0.0 0.0 0.00 0.00 0.00 92 1012.0
20260510014523 63 111 0.0 0.0 0.00 0.00 0.00 92 1012.1
20260510013025 63 111 0.0 0.0 0.00 0.00 0.00 91 1011.7
20260510011525 64 111 0.0 0.0 0.00 0.00 0.00 89 1011.4
20260510010016 65 111 0.0 0.0 0.00 0.00 0.00 88 1011.2
20260510004514 66 111 0.0 0.0 0.00 0.00 0.00 86 1011.2
20260510003009 67 111 0.0 0.0 0.00 0.00 0.00 83 1011.2
20260510001528 68 111 0.0 0.0 0.00 0.00 0.00 83 1011.2
20260510000016 68 111 0.0 0.0 0.00 0.00 0.00 82 1011.0
20260509234515 69 111 0.0 0.0 0.00 0.00 0.00 81 1011.0
20260509233024 70 111 0.0 0.0 0.00 0.00 0.00 79 1010.6
20260509231518 71 111 0.0 0.0 0.00 0.00 0.00 78 1010.7
20260509230012 71 111 0.0 0.0 0.00 0.00 0.00 76 1010.3
20260509224515 72 111 0.0 0.0 0.00 0.00 0.00 74 1010.2
20260509223019 72 111 0.0 0.0 0.00 0.00 0.00 73 1010.4
20260509221523 72 111 0.0 0.0 0.00 0.00 0.00 73 1010.4
20260509220025 72 111 0.0 0.0 0.00 0.00 0.00 74 1010.4
20260509214527 71 111 0.0 0.0 0.00 0.00 0.00 74 1010.4
20260509213016 72 111 0.0 0.0 0.00 0.00 0.00 74 1010.4
20260509211521 72 111 0.0 0.0 0.00 0.00 0.00 73 1010.2
20260509210034 72 110 0.0 0.0 0.00 0.00 0.00 73 1010.1
20260509204534 71 122 0.0 0.0 0.00 0.00 0.00 74 1010.1
20260509203022 70 122 0.0 0.0 0.00 0.00 0.00 75 1010.2
20260509201516 71 122 0.0 0.0 0.00 0.00 0.00 74 1010.4
20260509200020 70 122 0.0 0.0 0.00 0.00 0.00 74 1010.4
20260509194528 70 122 0.0 0.0 0.00 0.00 0.00 74 1010.7
20260509193029 70 122 0.0 0.0 0.00 0.00 0.00 74 1010.8
20260509191517 70 300 0.0 0.0 0.00 0.00 0.00 73 1011.1